www.pogodaiklimat.ru

Погода и климат >> Архив погоды >> Ирландия >> Malin Head


ПОГОДА в Malin Head

  • Прогноз погоды в Malin Head
  • Монитор погоды в Malin Head
  • Климат города

АРХИВ ПОГОДЫ в Malin Head

Время (UTC), дата Ветер
(напр.,м/с)
 
Видим.   Явления Облачность Т
(С)
Тd
(С)
f
(%)
Тe
(С)
Тes
(С)
Комфортность P
(гПа)
Po
(гПа)
Тmin
(С)
Tmax
(С)
R
(мм)
R24
(мм)
S
(см)
10 17.04 Ю 12
{19}
17 км н/о +13.9 +7.8 67 +11 +11 998.1 995.6
11 17.04 Ю 15
{20}
19 км н/о +15.1 +7.8 62 +12 +12 998.3 995.9
12 17.04 Ю 11
{21}
13 км н/о +15.0 +9.2 68 +12 +12 999.1 996.6
13 17.04 Ю 14
{21}
9000 м морось н/о +14.5 +8.8 69 +11 +11 999.9 997.5
14 17.04 Ю 10
{20}
15 км в посл. час дождь {ливн. осадки} н/о +15.2 +9.7 70 +13 +13 1000.8 998.4
15 17.04 ЮЗ 12 12 км {ливн. осадки, морось} н/о +15.6 +7.5 59 +13 +13 1001.1 998.7
16 17.04 ЮЗ 14
{18}
16 км н/о +16.0 +5.8 51 +14 +14 1002.3 999.8
17 17.04 Ю 11
{23}
12 км н/о +14.5 +6.9 60 +12 +12 1003.3 1000.8
18 17.04 Ю 10 21 км {ливн. осадки, морось} н/о +13.8 +7.0 64 +11 +11 1004.7 1002.3 +16.5 0.9
19 17.04 Ю 9 12 км н/о +12.9 +6.2 64 +10 +10 1005.8 1003.3
20 17.04 Ю 6 7000 м дымка н/о +12.1 +7.3 72 +9 +9 1007.0 1004.5
21 17.04 Ю 7 14 км н/о +12.0 +7.1 72 +9 +9 1007.9 1005.5
22 17.04 Ю 8 10 км н/о +12.1 +7.9 75 +9 +9 1008.9 1006.4
23 17.04 Ю 6 10 км н/о +11.7 +7.7 76 +9 +9 1009.7 1007.2
00 18.04 Ю 12 12 км н/о +11.7 +7.6 76 +8 +8 1010.0 1007.6
01 18.04 Ю 10
{18}
11 км н/о +11.4 +7.4 76 +8 +8 1010.6 1008.1
02 18.04 Ю 10
{19}
12 км н/о +11.5 +7.4 76 +8 +8 1011.0 1008.6
03 18.04 Ю 10 14 км н/о +11.3 +7.4 77 +7 +7 1011.2 1008.7
04 18.04 Ю 8 14 км н/о +11.1 +7.5 78 +8 +8 1012.0 1009.5
05 18.04 Ю 8 15 км н/о +11.4 +7.6 77 +8 +8 1012.4 1010.0
06 18.04 ЮВ 5 17 км н/о +11.0 +7.8 81 +8 +8 1013.1 1010.6 +10.8
07 18.04 ЮВ 8 19 км н/о +12.1 +8.5 79 +9 +9 1013.6 1011.1
08 18.04 Ю 7 13 км н/о +12.8 +8.7 76 +10 +10 1014.9 1012.5
09 18.04 Ю 7 26 км н/о +13.3 +8.8 74 +11 +11 1015.3 1012.9
10 18.04 Ю 8 25 км н/о +14.3 +8.5 68 +12 +12 1015.6 1013.2
11 18.04 Ю 10 40 км н/о +14.7 +8.2 65 +12 +12 1015.6 1013.2
12 18.04 Ю 9 26 км н/о +14.7 +9.1 69 +12 +12 1015.6 1013.1
13 18.04 ЮВ 8 7000 м слаб. ливневой дождь н/о +13.5 +10.5 82 +11 +11 1015.0 1012.6
14 18.04 ЮВ 7 28 км в посл. час морось н/о +14.9 +11.3 79 +13 +13 1014.2 1011.8
15 18.04 Ю 13
{18}
30 км {ливн. осадки, морось} н/о +17.9 +10.8 63 +16 +16 1013.1 1010.7
16 18.04 Ю 16
{23}
29 км н/о +19.4 +8.8 50 +19 +19 1012.2 1009.8
17 18.04 Ю 16
{23}
35 км н/о +18.8 +8.9 53 +18 +18 1011.7 1009.3
18 18.04 Ю 8
{25}
27 км {ливн. осадки, морось} н/о +17.5 +10.1 62 +16 +16 1011.9 1009.5 +20.0 0.0
19 18.04 Ю 13
{20}
26 км н/о +17.3 +8.4 56 +16 +16 1012.0 1009.6
20 18.04 Ю 10
{20}
35 км н/о +16.1 +8.8 62 +14 +14 1012.8 1010.3
21 18.04 Ю 14
{19}
35 км н/о +15.9 +8.6 62 +13 +13 1014.0 1011.6
22 18.04 Ю 11
{18}
30 км н/о +14.9 +9.1 68 +12 +12 1014.7 1012.3
23 18.04 Ю 8 29 км н/о +13.8 +9.2 74 +11 +11 1015.3 1012.8
00 19.04 Ю 9 30 км н/о +13.4 +9.1 75 +11 +11 1015.1 1012.7
01 19.04 Ю 6 30 км н/о +13.0 +9.1 77 +11 +11 1016.0 1013.5
02 19.04 Ю 5 27 км н/о +12.5 +8.9 79 +10 +10 1016.1 1013.6
03 19.04 Ю 6 35 км н/о +12.5 +9.0 79 +10 +10 1016.2 1013.8
04 19.04 Ю 4 16 км н/о +11.6 +8.8 83 +9 +9 1016.6 1014.1
05 19.04 Ю 6 26 км н/о +11.5 +8.8 83 +9 +9 1016.9 1014.4
06 19.04 Ю 4 30 км н/о +11.3 +8.8 85 +9 +9 1017.3 1014.8 +11.2
07 19.04 Ю 6 19 км н/о +12.0 +9.5 85 +9 +9 1018.1 1015.6
08 19.04 Ю 7 26 км н/о +12.9 +9.6 80 +10 +10 1018.4 1015.9
09 19.04 Ю 7 20 км н/о +14.0 +9.8 76 +12 +12 1018.8 1016.3
10 19.04 Ю 7 26 км н/о +15.1 +9.3 68 +13 +13 1019.2 1016.8
11 19.04 Ю 7 23 км н/о +15.2 +9.3 68 +13 +13 1019.7 1017.2
12 19.04 ЮЗ 7 30 км н/о +15.0 +9.5 70 +13 +13 1020.1 1017.6
13 19.04 З 5 40 км н/о +13.8 +8.7 71 +12 +12 1020.6 1018.1
14 19.04 З 5 27 км н/о +14.0 +8.8 71 +12 +12 1021.0 1018.5
15 19.04 С 2 26 км н/о +12.4 +8.0 75 +12 +12 1021.1 1018.6
16 19.04 СЗ 3 25 км н/о +13.1 +8.0 71 +12 +12 1021.5 1019.0
17 19.04 СЗ 3 22 км н/о +12.8 +6.7 66 +12 +12 1021.9 1019.4
18 19.04 С 2 18 км н/о +12.1 +6.5 69 +11 +11 1022.2 1019.7 +16.1
19 19.04 З 1 13 км н/о +11.3 +6.4 72 +11 +11 1022.4 1019.9
20 19.04 СВ 1 11 км н/о +9.4 +5.9 79 +9 +9 1022.8 1020.2
21 19.04 штиль 0 7000 м дымка н/о +8.6 +5.5 81 +8 +8 1023.1 1020.5
22 19.04 Ю 4 14 км н/о +7.2 +4.8 85 +4 +4 1022.7 1020.2
23 19.04 Ю 4 17 км н/о +7.6 +5.4 86 +4 +4 1022.7 1020.2
00 20.04 ЮВ 4 21 км н/о +9.0 +6.4 84 +6 +6 1022.6 1020.1
01 20.04 Ю 4 24 км н/о +7.7 +5.3 85 +4 +4 1022.3 1019.8
02 20.04 Ю 4 9000 м дымка н/о +6.2 +4.2 87 +2 +2 1022.2 1019.7
03 20.04 Ю 4 14 км н/о +6.7 +4.9 88 +3 +3 1022.2 1019.6
04 20.04 Ю 6 11 км н/о +7.1 +5.5 90 +3 +3 1022.0 1019.4
05 20.04 Ю 7 19 км н/о +8.3 +5.6 83 +4 +4 1021.7 1019.1
06 20.04 Ю 6 15 км н/о +8.6 +5.6 81 +5 +5 1022.0 1019.4 +6.2
07 20.04 Ю 7 17 км н/о +9.2 +6.3 82 +5 +5 1022.2 1019.7
08 20.04 Ю 6 17 км н/о +10.7 +7.1 78 +8 +8 1022.5 1020.0
09 20.04 ЮЗ 8 20 км н/о +11.0 +7.2 77 +7 +7 1022.5 1020.0
10 20.04 ЮЗ 8 24 км н/о +12.0 +7.4 73 +9 +9 1022.8 1020.2
11 20.04 З 8 20 км н/о +13.1 +7.5 69 +10 +10 1023.0 1020.5
12 20.04 З 9 19 км н/о +12.2 +7.6 73 +9 +9 1023.2 1020.7
13 20.04 З 11 26 км н/о +12.0 +7.3 73 +8 +8 1023.3 1020.8
14 20.04 З 10 20 км н/о +12.4 +7.5 72 +9 +9 1023.6 1021.1
15 20.04 З 8 25 км н/о +12.2 +7.3 72 +9 +9 1023.6 1021.1
16 20.04 З 9 20 км н/о +11.8 +7.7 76 +8 +8 1023.6 1021.1
17 20.04 З 8 23 км н/о +10.9 +7.3 78 +7 +7 1023.6 1021.1
18 20.04 З 9 20 км н/о +10.3 +7.0 80 +6 +6 1023.6 1021.1 +13.4
19 20.04 З 6 19 км н/о +9.3 +6.8 84 +6 +6 1023.7 1021.2
20 20.04 З 6 10 км н/о +8.3 +6.5 88 +4 +4 1023.7 1021.2
21 20.04 З 6 14 км н/о +8.0 +6.3 89 +4 +4 1023.8 1021.3
22 20.04 ЮЗ 5 20 км н/о +7.8 +6.2 90 +4 +4 1023.6 1021.0
23 20.04 ЮВ 3 21 км н/о +6.4 +4.8 89 +3 +3 1023.5 1020.9
00 21.04 Ю 3 30 км н/о +5.7 +4.2 90 +2 +2 1023.3 1020.7
01 21.04 Ю 2 30 км н/о +6.2 +4.7 90 +4 +4 1022.8 1020.2
02 21.04 Ю 2 35 км н/о +6.2 +4.7 90 +4 +4 1022.1 1019.6
03 21.04 Ю 3 40 км н/о +7.0 +5.2 88 +4 +4 1021.6 1019.0
04 21.04 Ю 4 35 км н/о +6.5 +4.5 87 +3 +3 1021.0 1018.4
05 21.04 Ю 3 30 км н/о +6.3 +4.2 86 +3 +3 1020.4 1017.8
06 21.04 Ю 3 30 км н/о +6.5 +4.6 88 +3 +3 1019.9 1017.3 +5.5
07 21.04 Ю 4 35 км н/о +8.6 +6.0 84 +5 +5 1019.5 1016.9
08 21.04 Ю 5 40 км н/о +10.5 +6.0 74 +8 +8 1018.9 1016.4
09 21.04 ЮЗ 4 24 км н/о +12.2 +6.3 67 +10 +10 1018.3 1015.8
10 21.04 Ю 9 35 км н/о +12.8 +6.0 63 +10 +10 1017.5 1015.0
11 21.04 ЮЗ 8 30 км н/о +14.3 +6.6 60 +12 +12 1016.9 1014.4
12 21.04 Ю 7 29 км н/о +15.8 +5.5 50 +14 +14 1015.8 1013.3
13 21.04 ЮЗ 6 40 км н/о +15.8 +6.3 53 +15 +15 1014.7 1012.2
14 21.04 ЮЗ 6 35 км н/о +16.2 +6.3 52 +15 +15 1013.6 1011.1
15 21.04 ЮЗ 6 24 км н/о +17.5 +5.8 46 +17 +17 1012.5 1010.0
16 21.04 ЮЗ 4 40 км н/о +16.4 +5.6 49 +16 +16 1011.4 1008.9
17 21.04 СЗ 3 26 км н/о +11.2 +6.8 74 +9 +9 1010.7 1008.2
18 21.04 СЗ 4 23 км н/о +10.4 +6.1 75 +8 +8 1010.2 1007.7 +18.2
19 21.04 СЗ 3 30 км н/о +9.8 +5.5 75 +8 +8 1009.2 1006.8
20 21.04 В 2 45 км н/о +9.1 +5.6 79 +7 +7 1008.7 1006.2
21 21.04 С 1 30 км н/о +8.8 +5.2 78 +8 +8 1008.1 1005.6
22 21.04 С 2 12 км н/о +8.7 +5.5 80 +7 +7 1007.3 1004.8
23 21.04 З 2 35 км н/о +8.4 +5.3 81 +7 +7 1006.8 1004.3
00 22.04 Ю 2 9000 м дымка н/о +7.8 +5.7 87 +6 +6 1006.2 1003.7
01 22.04 Ю 3 21 км слаб. ливневой дождь н/о +8.0 +5.9 87 +5 +5 1005.5 1003.0
02 22.04 Ю 2 30 км слаб. ливневой дождь н/о +8.3 +6.4 88 +6 +6 1004.6 1002.1
03 22.04 Ю 6 20 км в посл. час морось {ливн. осадки} н/о +9.0 +6.9 87 +5 +5 1004.0 1001.5
04 22.04 ЮЗ 5 17 км н/о +9.0 +7.1 88 +6 +6 1003.6 1001.1
05 22.04 ЮЗ 5 3400 м морось н/о +8.1 +6.9 92 +4 +4 1003.3 1000.8
06 22.04 ЮЗ 5 12 км слаб. морось {ливн. осадки, дождь} н/о +8.2 +7.2 93 +4 +4 1003.1 1000.6 +7.8 1
07 22.04 ЮЗ 5 10 км слаб. ливневой дождь н/о +8.2 +7.3 94 +4 +4 1003.5 1001.0
08 22.04 ЮЗ 6 14 км слаб. дождь н/о +8.5 +7.4 93 +4 +4 1003.2 1000.7
09 22.04 З 7 7000 м дождь {ливн. осадки} н/о +8.0 +6.9 93 +3 +3 1003.4 1000.9
10 22.04 ЮЗ 6 25 км в посл. час дождь н/о +9.1 +8.0 93 +5 +5 1003.4 1000.9
11 22.04 ЮЗ 6 26 км н/о +10.6 +8.6 87 +7 +7 1003.2 1000.8
12 22.04 ЮЗ 6 27 км {ливн. осадки, дождь} н/о +11.9 +8.3 79 +9 +9 1002.9 1000.4 3
13 22.04 ЮЗ 10 30 км н/о +10.9 +6.1 72 +7 +7 1002.8 1000.3
14 22.04 ЮЗ 10 18 км слаб. дождь н/о +10.4 +6.6 77 +6 +6 1002.7 1000.2
15 22.04 ЮЗ 8 45 км в посл. час морось н/о +10.8 +7.6 81 +7 +7 1002.0 999.5
16 22.04 ЮЗ 11 8000 м ливневой дождь н/о +10.0 +8.0 87 +5 +5 1002.1 999.6
17 22.04 ЮЗ 10 14 км в посл. час морось н/о +9.7 +8.0 89 +5 +5 1002.4 999.9
18 22.04 ЮЗ 10 16 км {ливн. осадки, морось} н/о +9.7 +7.5 86 +5 +5 1002.6 1000.1 +11.9 3
19 22.04 ЮЗ 11 17 км н/о +9.3 +7.0 86 +4 +4 1003.2 1000.7
20 22.04 ЮЗ 11 9000 м дымка н/о +8.8 +7.1 89 +4 +4 1003.9 1001.4
21 22.04 ЮЗ 10 12 км слаб. ливневой дождь {дымка} н/о +8.5 +7.0 90 +3 +3 1004.5 1002.0
22 22.04 ЮЗ 10 10 км н/о +8.7 +7.3 91 +4 +4 1005.0 1002.5
23 22.04 З 12 10 км н/о +8.9 +7.3 90 +3 +3 1005.6 1003.1
00 23.04 З 10 11 км в посл. час дождь {ливн. осадки, дымка} н/о +8.3 +7.0 92 +3 +3 1006.0 1003.6 0.2
01 23.04 З 10 11 км н/о +8.7 +7.2 90 +4 +4 1006.7 1004.2
02 23.04 З 10 10 км н/о +8.7 +7.2 90 +4 +4 1007.0 1004.5
03 23.04 З 10 20 км н/о +8.8 +6.0 83 +4 +4 1007.9 1005.4
04 23.04 З 10 12 км слаб. ливневой дождь н/о +8.3 +6.7 90 +3 +3 1008.1 1005.6
05 23.04 ЮЗ 10 17 км н/о +8.4 +6.5 88 +3 +3 1008.2 1005.7
06 23.04 З 6 16 км {ливн. осадки} н/о +8.5 +6.2 85 +5 +5 1008.6 1006.1 +7.8 0.5
07 23.04 ЮЗ 7 17 км н/о +8.7 +6.4 85 +4 +4 1008.8 1006.3
08 23.04 ЮЗ 6 16 км н/о +9.1 +6.8 86 +5 +5 1008.6 1006.1
09 23.04 ЮЗ 6 18 км н/о +9.5 +6.3 80 +6 +6 1008.4 1006.0
10 23.04 Ю 7 20 км н/о +10.3 +6.6 78 +7 +7 1007.8 1005.4
11 23.04 Ю 7 21 км н/о +9.9 +6.5 79 +6 +6 1007.2 1004.7
12 23.04 Ю 8 29 км н/о +10.6 +6.7 77 +7 +7 1005.9 1003.5
13 23.04 Ю 9 15 км слаб. ливневой дождь н/о +10.3 +8.2 87 +6 +6 1004.7 1002.2
14 23.04 Ю 9 11 км в посл. час дождь {ливн. осадки} н/о +10.9 +9.3 90 +7 +7 1003.7 1001.2
15 23.04 ЮЗ 12 13 км в посл. час дождь {ливн. осадки} н/о +11.4 +10.0 91 +7 +7 1003.4 1000.9
16 23.04 ЮЗ 15
{21}
9000 м дымка н/о +10.2 +8.6 90 +5 +5 1003.6 1001.1
17 23.04 З 14
{20}
8000 м дымка н/о +10.0 +7.8 86 +5 +5 1004.5 1002.0
18 23.04 З 14
{19}
9000 м дымка {ливн. осадки} н/о +9.7 +6.5 80 +4 +4 1005.6 1003.1 +11.6 1
19 23.04 ЮЗ 10 10 км н/о +9.1 +6.2 82 +4 +4 1006.3 1003.8
20 23.04 З 13 9000 м дымка н/о +9.1 +6.6 84 +4 +4 1006.1 1003.7
21 23.04 ЮЗ 9
{18}
10 км н/о +8.9 +7.1 88 +4 +4 1006.9 1004.4
22 23.04 З 14
{20}
7000 м дымка н/о +8.9 +6.7 86 +3 +3 1006.9 1004.4
23 23.04 ЮЗ 11
{18}
9000 м в посл. час морось н/о +8.7 +6.6 87 +3 +3 1007.3 1004.8
00 24.04 ЮЗ 9 9000 м дымка {морось} н/о +8.3 +6.3 87 +3 +3 1007.8 1005.3 0.0
01 24.04 ЮЗ 9 12 км н/о +8.4 +5.8 84 +4 +4 1007.9 1005.4
02 24.04 З 10 2600 м сильн. ливневой дождь н/о +7.6 +5.8 88 +2 +2 1008.2 1005.6
03 24.04 ЮЗ 8 11 км в посл. час дождь {ливн. осадки} н/о +8.2 +6.9 92 +3 +3 1008.0 1005.5
04 24.04 ЮЗ 6 12 км в посл. час морось н/о +8.2 +6.8 91 +4 +4 1007.6 1005.1
05 24.04 ЮЗ 7 12 км {ливн. осадки} н/о +8.0 +6.5 90 +3 +3 1007.8 1005.3
06 24.04 З 6 13 км слаб. ливневой дождь {морось} н/о +7.0 +5.6 91 +2 +2 1007.9 1005.4 +7.0 7
07 24.04 ЮЗ 6 15 км {ливн. осадки} н/о +8.8 +7.1 89 +5 +5 1007.9 1005.4
08 24.04 ЮЗ 7 14 км н/о +9.7 +7.8 88 +6 +6 1007.9 1005.4
09 24.04 З 11 6000 м слаб. дождь {ливн. осадки} н/о +8.3 +5.7 84 +3 +3 1007.8 1005.3

 

Местоположение метеостанции Malin Head (Ирландия): широта 55.37 долгота -7.34 высота над уровнем моря 20 м.

В архиве по умолчанию представлена погода в Malin Head за последнюю неделю. Архивные данные за месяц целиком и за предыдущие месяцы, начиная с января 2011 года, Вы можете получить, выбрав интересующий диапазон дат из раскрывающегося списка и нажав кнопку "Ввод!".


*Определитесь, кто Вы:
робот инопланетянин человек

Внимание! Время в таблицах - всемирное. Для получения местного времени необходимо прибавить поправку, которая в Malin Head равна 0 ч.

Смотрите также архив погоды в соседних городах и на ближайших метеорологических станциях:

Погода в Magilligan No 2 (Великобритания) (36 км)
Погода в Castlederg (Великобритания) (76 км)
Погода в Port Ellen (Великобритания) (77 км)
Погода в Ballypatrick Forest (Великобритания) (77 км)
Погода в Portglenone (Великобритания) (79 км)
Погода в Lough Fea (Великобритания) (80 км)
Погода в Machrihanish (Великобритания) (104 км)
Погода в Belfast (Великобритания) (107 км)
Погода в Finner (Ирландия) (114 км)
Погода в Thomastown (Великобритания) (117 км)

Пояснения к столбцам:

Ветер - указаны скорость ветра в м/с - средняя за 10 мин, порывы в срок и между сроками (в фигурных скобках) и направление, откуда дует ветер: С - северный, СВ - северо-восточный, В - восточный, ЮВ - юго-восточный, Ю - южный, ЮЗ - юго-западный, З - западный, СЗ - северо-западный.
Видимость - горизонтальная дальность видимости в метрах или километрах. При видимости от 1 до 10 км при отсутствии осадков обычно наблюдается дымка, при ухудшении видимости до 1 км и менее - туман. В сухую погоду видимость может ухудшаться дымом, пылью или мглою.
Явления - указаны атмосферные явления, наблюдавшиеся в срок или в последний час перед сроком; фигурными скобками обозначены явления, наблюдавшиеся между сроками (за 1-3 часа до срока); квадратными скобками обозначены град или гололедные отложения с указанием их диаметра в мм.
Облачность - указаны через наклонную черту общая и нижняя облачность в баллах и высота нижней границы облаков в метрах; квадратными скобками обозначены формы облаков: Ci - перистые, Cs - перисто-слоистые, Cc - перисто-кучевые, Ac - высококучевые, As - высокослоистые, Sc - слоисто-кучевые, Ns - слоисто-дождевые, Cu - кучевые, Cb - кучево-дождевые. Подробнее классификацию облаков см. в Атласе облаков (PDF).
T - Температура воздуха - температура, измеренная на высоте 2 м над землей.
Td - Температура точки росы - температура, при понижении до которой содержащийся в воздухе водяной пар достигнет насыщения.
f - Относительная влажность воздуха - влажноcть воздуха, измеренная на высоте 2 м над землей.
Te - Эффективная температура - температура, которую ощущает одетый по сезону человек в тени. Характеристика душности погоды. При расчете учитывается влияние влажности воздуха и скорости ветра на теплоощущения человека.
Tes - Эффективная температура на солнце - температура, которую ощущает человек, с поправкой на солнечный нагрев. Характеристика знойности погоды. Зависит от высоты солнца над горизонтом, облачности и скорости ветра. Ночью, в пасмурную погоду, а также при ветре 12 м/с и более поправка равна нулю.
P - Атмосферное давление - приведенное к уровню моря атмосферное давление.
Po - Атмосферное давление - измеренное на уровне метеостанции атмосферное давление.
Tmin - Минимальная температура - минимум температуры воздуха на высоте 2 м над землей.
Tmax - Максимальная температура - максимум температуры воздуха на высоте 2 м над землей.
R - Количество осадков - Количество выпавших осадков за период времени, мм. При наведении курсора мыши на число - период времени, за который выпало указанное количество осадков.
R24 - Количество осадков - Количество выпавших осадков за 24 часа, мм.
S - Снежный покров - Высота снежного покрова, см. При наведении курсора мыши на число - состояние снежного покрова и степень покрытия местности в баллах.